Regional Weather Roundup
Issued by NWS

Home | Current Version | Previous Version | Graphics & Text | Print | Product List | Glossary On
Versions: 1 2 3 4 5 6 7 8 9 10 11 12 13 14 15 16 17 18 19 20 21 22 23 24 25 26 27 28 29 30 31 32 33 34 35 36 37 38 39 40 41 42 43 44 45 46 47 48 49 50
000
ASUS43 KBIS 291002
RWRND

NORTH DAKOTA REGIONAL WEATHER ROUNDUP
NATIONAL WEATHER SERVICE BISMARCK ND
500 AM CDT SUN MAY 29 2016

NOTE: "FAIR" INDICATES FEW OR NO CLOUDS BELOW 12,000 FEET WITH NO
SIGNIFICANT WEATHER AND/OR OBSTRUCTIONS TO VISIBILITY.


NDZ001>003-009>011-017-291100-
NORTHWEST NORTH DAKOTA

CITY           SKY/WX    TMP DP  RH WIND       PRES   REMARKS
WILLISTON      CLEAR     44  43  96 CALM      29.98S FOG
MINOT          CLEAR     54  51  90 SW10      29.94S
MINOT AFB      CLEAR     50  49  97 W8        29.93S
$$

NDZ018>021-031>035-040>046-291100-
SOUTHWEST NORTH DAKOTA

CITY           SKY/WX    TMP DP  RH WIND       PRES   REMARKS
BISMARCK       CLEAR     50  49  96 CALM      29.99R
DICKINSON      PTCLDY    46  43  89 W7        30.00R
GARRISON         N/A     49  48  97 W5        29.97R
HETTINGER ARPT FOG       39  38  96 CALM      30.04R VSB 1/4
$$

NDZ004>008-012>016-024-026-027-054-291100-
NORTHEAST NORTH DAKOTA

CITY           SKY/WX    TMP DP  RH WIND       PRES   REMARKS
GRAND FORKS    CLOUDY    60  58  92 NW8       29.87S
GRND FRKS AFB  CLOUDY    59  59 100 N8        29.88S
DEVILS LAKE    CLOUDY    58  56  93 NW6       29.93R
$$

NDZ022-023-025-028>030-036>039-047>053-291100-
SOUTHEAST NORTH DAKOTA

CITY           SKY/WX    TMP DP  RH WIND       PRES   REMARKS
FARGO          MOCLDY    58  56  93 W6        29.88S
JAMESTOWN      MOCLDY    53  53 100 CALM      29.91S FOG
$$





USA.gov is the U.S. government's official web portal to all federal, state and local government web resources and services.